EWG2CA EDDH-EDDS

Flight info

Callsign EWG2CA
Flight time 0h 59m
Altitude 35000
Route IDEKO7G/33 IDEKO N850 NIE DCT BERXO DCT SILWE DCT OSBIT P605 TOSTU T726 LBU
Aircraft A320/M-SDE3FGHIRWY/LB1

Departure

Time 2026-04-25 09:59
Airport Hamburg Helmut Schmidt Airport (EDDH)

Arrival

Time 2026-04-25 10:58
Airport Stuttgart Airport (EDDS)
Time Latitude Longitude Altitude Speed Heading
2026-04-25 09:30 53.63292 10.00355 40 ft 0 kts 87°
2026-04-25 09:51 53.63291 10.00319 48 ft 4 kts 87°
2026-04-25 09:51 53.63290 10.00280 48 ft 2 kts 87°
2026-04-25 09:52 53.63292 10.00245 48 ft 4 kts 143°
2026-04-25 09:52 53.63314 10.00235 47 ft 4 kts 176°
2026-04-25 09:52 53.63321 10.00234 46 ft 0 kts 176°
2026-04-25 09:55 53.63312 10.00235 48 ft 3 kts 176°
2026-04-25 09:55 53.63273 10.00238 48 ft 7 kts 180°
2026-04-25 09:56 53.63232 10.00184 48 ft 8 kts 202°
2026-04-25 09:56 53.63179 10.00184 48 ft 7 kts 174°
2026-04-25 09:56 53.63132 10.00191 48 ft 6 kts 174°
2026-04-25 09:56 53.63083 10.00191 48 ft 9 kts 191°
2026-04-25 09:57 53.63018 10.00129 47 ft 12 kts 213°
2026-04-25 09:57 53.62946 10.00046 47 ft 12 kts 218°
2026-04-25 09:57 53.62905 9.99940 46 ft 11 kts 243°
2026-04-25 09:57 53.62876 9.99841 44 ft 9 kts 244°
2026-04-25 09:58 53.62856 9.99771 44 ft 4 kts 254°
2026-04-25 09:58 53.62875 9.99742 43 ft 0 kts 333°
2026-04-25 09:58 53.62876 9.99741 44 ft 4 kts 333°
2026-04-25 09:58 53.63136 9.99513 46 ft 78 kts 333°
2026-04-25 09:59 53.63800 9.98948 49 ft 134 kts 333°
2026-04-25 09:59 53.64726 9.98284 508 ft 136 kts 331°
2026-04-25 09:59 53.65569 9.97663 1305 ft 135 kts 328°
2026-04-25 09:59 53.66441 9.96910 1852 ft 149 kts 326°
2026-04-25 10:00 53.67396 9.96030 2327 ft 165 kts 327°
2026-04-25 10:00 53.68464 9.95066 2774 ft 183 kts 327°
2026-04-25 10:00 53.69632 9.93975 3394 ft 194 kts 329°
2026-04-25 10:00 53.70738 9.92724 4309 ft 192 kts 311°
2026-04-25 10:01 53.71369 9.90754 5147 ft 198 kts 286°
2026-04-25 10:01 53.71309 9.88278 5570 ft 230 kts 259°
2026-04-25 10:01 53.70788 9.85588 6179 ft 248 kts 257°
2026-04-25 10:01 53.70222 9.82812 7043 ft 252 kts 257°
2026-04-25 10:02 53.69646 9.79999 7922 ft 255 kts 257°
2026-04-25 10:02 53.69068 9.77153 8842 ft 258 kts 257°
2026-04-25 10:02 53.68490 9.74277 9761 ft 260 kts 258°
2026-04-25 10:02 53.67906 9.71345 10466 ft 271 kts 258°
2026-04-25 10:03 53.67291 9.68200 10760 ft 294 kts 257°
2026-04-25 10:03 53.66634 9.64854 11337 ft 305 kts 255°
2026-04-25 10:03 53.65608 9.61646 12074 ft 320 kts 238°
2026-04-25 10:03 53.63959 9.59017 12851 ft 335 kts 220°
2026-04-25 10:04 53.61798 9.57351 13636 ft 352 kts 201°
2026-04-25 10:04 53.59341 9.56714 14313 ft 360 kts 192°
2026-04-25 10:04 53.56842 9.56230 14975 ft 364 kts 192°
2026-04-25 10:04 53.54312 9.55750 15626 ft 367 kts 192°
2026-04-25 10:05 53.51762 9.55264 16276 ft 371 kts 192°
2026-04-25 10:05 53.49219 9.54773 16911 ft 374 kts 192°
2026-04-25 10:05 53.46621 9.54265 17556 ft 378 kts 192°
2026-04-25 10:05 53.43992 9.53748 18188 ft 382 kts 192°
2026-04-25 10:06 53.41339 9.53227 18749 ft 386 kts 192°
2026-04-25 10:06 53.38659 9.52699 19292 ft 389 kts 192°
2026-04-25 10:06 53.35956 9.52166 19827 ft 393 kts 192°
2026-04-25 10:06 53.33233 9.51631 20368 ft 396 kts 192°
2026-04-25 10:07 53.30490 9.51096 20906 ft 399 kts 192°
2026-04-25 10:07 53.27721 9.50557 21434 ft 402 kts 192°
2026-04-25 10:07 53.24930 9.50015 21947 ft 405 kts 192°
2026-04-25 10:07 53.22121 9.49465 22455 ft 408 kts 192°
2026-04-25 10:08 53.19286 9.48906 22962 ft 412 kts 192°
2026-04-25 10:08 53.16434 9.48345 23459 ft 415 kts 192°
2026-04-25 10:08 53.13556 9.47782 23897 ft 418 kts 192°
2026-04-25 10:08 53.10654 9.47221 24299 ft 421 kts 192°
2026-04-25 10:09 53.07738 9.46657 24703 ft 424 kts 192°
2026-04-25 10:09 53.04798 9.46089 25099 ft 426 kts 192°
2026-04-25 10:09 53.01843 9.45520 25487 ft 429 kts 192°
2026-04-25 10:09 52.98865 9.44949 25878 ft 432 kts 192°
2026-04-25 10:10 52.95877 9.44349 26255 ft 434 kts 192°
2026-04-25 10:10 52.92870 9.43711 26634 ft 437 kts 193°
2026-04-25 10:10 52.89852 9.43049 27008 ft 439 kts 193°
2026-04-25 10:10 52.86812 9.42376 27354 ft 442 kts 192°
2026-04-25 10:11 52.83755 9.41704 27732 ft 444 kts 192°
2026-04-25 10:11 52.80686 9.41037 28098 ft 447 kts 192°
2026-04-25 10:11 52.77592 9.40375 28457 ft 449 kts 192°
2026-04-25 10:11 52.74484 9.39715 28808 ft 452 kts 192°
2026-04-25 10:12 52.71354 9.39055 29163 ft 455 kts 192°
2026-04-25 10:12 52.68205 9.38396 29508 ft 457 kts 192°
2026-04-25 10:12 52.61795 9.37843 30143 ft 469 kts 178°
2026-04-25 10:13 52.58555 9.38720 30431 ft 475 kts 170°
2026-04-25 10:13 52.55326 9.39964 30695 ft 477 kts 170°
2026-04-25 10:13 52.52084 9.41193 30952 ft 480 kts 170°
2026-04-25 10:13 52.48821 9.42413 31206 ft 482 kts 171°
2026-04-25 10:14 52.45591 9.43609 31455 ft 484 kts 171°
2026-04-25 10:14 52.42301 9.44825 31739 ft 485 kts 171°
2026-04-25 10:14 52.39016 9.46041 32100 ft 484 kts 171°
2026-04-25 10:14 52.35731 9.47258 32435 ft 484 kts 170°
2026-04-25 10:15 52.32452 9.48472 32781 ft 483 kts 170°
2026-04-25 10:15 52.29171 9.49690 33116 ft 483 kts 170°
2026-04-25 10:15 52.25894 9.50905 33459 ft 483 kts 170°
2026-04-25 10:15 52.22613 9.52117 33808 ft 483 kts 170°
2026-04-25 10:16 52.19336 9.53321 34129 ft 483 kts 170°
2026-04-25 10:16 52.16055 9.54525 34426 ft 483 kts 170°
2026-04-25 10:16 52.12784 9.55726 34727 ft 482 kts 170°
2026-04-25 10:16 52.09517 9.56928 35041 ft 481 kts 170°
2026-04-25 10:17 52.06261 9.58130 35133 ft 477 kts 170°
2026-04-25 10:17 51.99843 9.60486 35144 ft 471 kts 170°
2026-04-25 10:18 51.93457 9.62809 35146 ft 470 kts 170°
2026-04-25 10:18 51.87077 9.65126 35141 ft 469 kts 170°
2026-04-25 10:19 51.80707 9.67436 35147 ft 469 kts 170°
2026-04-25 10:19 51.74340 9.69735 35147 ft 469 kts 170°
2026-04-25 10:20 51.67977 9.72022 35153 ft 468 kts 170°
2026-04-25 10:20 51.61622 9.74313 35136 ft 467 kts 169°
2026-04-25 10:21 51.56350 9.76207 35139 ft 467 kts 169°
2026-04-25 10:21 51.50010 9.78469 35141 ft 466 kts 169°
2026-04-25 10:22 51.43686 9.80726 35138 ft 466 kts 169°
2026-04-25 10:22 51.37362 9.82980 35120 ft 465 kts 169°
2026-04-25 10:23 51.31044 9.85220 35128 ft 465 kts 169°
2026-04-25 10:23 51.24734 9.87428 35126 ft 464 kts 172°
2026-04-25 10:24 51.18352 9.87863 35127 ft 458 kts 186°
2026-04-25 10:24 51.11982 9.87265 35114 ft 458 kts 186°
2026-04-25 10:25 51.05615 9.86726 35117 ft 458 kts 185°
2026-04-25 10:25 50.99249 9.86197 35110 ft 458 kts 185°
2026-04-25 10:26 50.92885 9.85654 35122 ft 458 kts 186°
2026-04-25 10:26 50.86535 9.85097 35139 ft 456 kts 187°
2026-04-25 10:27 50.80211 9.84543 35148 ft 454 kts 187°
2026-04-25 10:27 50.73913 9.83999 35146 ft 453 kts 187°
2026-04-25 10:28 50.67630 9.83459 35141 ft 452 kts 187°
2026-04-25 10:28 50.61402 9.82925 35153 ft 451 kts 188°
2026-04-25 10:29 50.55154 9.82393 35147 ft 449 kts 188°
2026-04-25 10:29 50.48927 9.81856 35144 ft 448 kts 188°
2026-04-25 10:30 50.42715 9.81317 35123 ft 446 kts 188°
2026-04-25 10:30 50.36518 9.80792 35131 ft 446 kts 188°
2026-04-25 10:31 50.30331 9.80276 35132 ft 445 kts 188°
2026-04-25 10:31 50.24147 9.79756 35124 ft 444 kts 188°
2026-04-25 10:32 50.17976 9.79237 35109 ft 444 kts 188°
2026-04-25 10:32 50.11809 9.78722 35111 ft 444 kts 188°
2026-04-25 10:33 50.05631 9.78403 35110 ft 447 kts 182°
2026-04-25 10:33 49.99415 9.78808 34993 ft 448 kts 182°
2026-04-25 10:33 49.96304 9.79008 34710 ft 446 kts 182°
2026-04-25 10:34 49.93212 9.79210 34141 ft 444 kts 182°
2026-04-25 10:34 49.90140 9.79409 33542 ft 441 kts 182°
2026-04-25 10:34 49.87089 9.79605 32999 ft 437 kts 182°
2026-04-25 10:34 49.84067 9.79796 32436 ft 433 kts 183°
2026-04-25 10:35 49.81073 9.79513 31353 ft 432 kts 197°
2026-04-25 10:35 49.78190 9.78179 30417 ft 433 kts 203°
2026-04-25 10:35 49.75359 9.76714 29911 ft 426 kts 203°
2026-04-25 10:35 49.72572 9.75266 29339 ft 420 kts 203°
2026-04-25 10:36 49.69816 9.73836 28768 ft 415 kts 203°
2026-04-25 10:36 49.67094 9.72429 28202 ft 411 kts 203°
2026-04-25 10:36 49.64399 9.71039 27648 ft 406 kts 203°
2026-04-25 10:36 49.61739 9.69675 27059 ft 400 kts 202°
2026-04-25 10:37 49.59115 9.68334 26308 ft 394 kts 202°
2026-04-25 10:37 49.56532 9.67013 25570 ft 388 kts 202°
2026-04-25 10:37 49.53986 9.65709 24841 ft 384 kts 202°
2026-04-25 10:37 49.51459 9.64414 24281 ft 381 kts 202°
2026-04-25 10:38 49.48964 9.63136 23790 ft 376 kts 202°
2026-04-25 10:38 49.46492 9.61868 23236 ft 373 kts 202°
2026-04-25 10:38 49.44041 9.60610 22647 ft 370 kts 202°
2026-04-25 10:38 49.41604 9.59368 22067 ft 368 kts 202°
2026-04-25 10:39 49.39168 9.58128 21438 ft 369 kts 201°
2026-04-25 10:39 49.36747 9.56896 20970 ft 365 kts 201°
2026-04-25 10:39 49.34344 9.55679 20487 ft 362 kts 201°
2026-04-25 10:39 49.31999 9.54495 20055 ft 358 kts 201°
2026-04-25 10:40 49.29612 9.53288 19602 ft 356 kts 201°
2026-04-25 10:40 49.27297 9.52116 19158 ft 354 kts 201°
2026-04-25 10:40 49.24965 9.50935 18716 ft 353 kts 201°
2026-04-25 10:40 49.22638 9.49759 18253 ft 352 kts 201°
2026-04-25 10:41 49.20325 9.48588 17794 ft 349 kts 201°
2026-04-25 10:41 49.18028 9.47427 17360 ft 346 kts 201°
2026-04-25 10:41 49.15797 9.46133 16942 ft 340 kts 212°
2026-04-25 10:41 49.14036 9.43886 16752 ft 324 kts 231°
2026-04-25 10:42 49.12614 9.41249 16409 ft 320 kts 234°
2026-04-25 10:42 49.11237 9.38601 16053 ft 318 kts 234°
2026-04-25 10:42 49.09867 9.35963 15675 ft 316 kts 234°
2026-04-25 10:42 49.08505 9.33343 15296 ft 315 kts 234°
2026-04-25 10:43 49.07145 9.30732 14940 ft 313 kts 234°
2026-04-25 10:43 49.05790 9.28137 14588 ft 312 kts 234°
2026-04-25 10:43 49.04441 9.25549 14215 ft 312 kts 234°
2026-04-25 10:43 49.03091 9.22965 13874 ft 311 kts 234°
2026-04-25 10:44 49.01748 9.20398 13481 ft 309 kts 234°
2026-04-25 10:44 49.00411 9.17837 13110 ft 308 kts 234°
2026-04-25 10:44 48.99084 9.15288 12741 ft 307 kts 234°
2026-04-25 10:44 48.97764 9.12744 12352 ft 305 kts 234°
2026-04-25 10:45 48.96454 9.10210 11986 ft 304 kts 234°
2026-04-25 10:45 48.95153 9.07686 11609 ft 303 kts 234°
2026-04-25 10:45 48.93860 9.05166 11222 ft 300 kts 234°
2026-04-25 10:45 48.92590 9.02670 10695 ft 298 kts 234°
2026-04-25 10:46 48.91336 9.00200 10358 ft 290 kts 234°
2026-04-25 10:46 48.90117 8.97798 9988 ft 285 kts 234°
2026-04-25 10:46 48.88914 8.95428 9483 ft 282 kts 233°
2026-04-25 10:46 48.87720 8.93068 9060 ft 281 kts 234°
2026-04-25 10:47 48.86535 8.90722 8693 ft 279 kts 234°
2026-04-25 10:47 48.85361 8.88396 8335 ft 277 kts 234°
2026-04-25 10:47 48.84195 8.86081 7989 ft 275 kts 234°
2026-04-25 10:47 48.83034 8.83781 7635 ft 274 kts 234°
2026-04-25 10:48 48.81879 8.81497 7311 ft 273 kts 234°
2026-04-25 10:48 48.80733 8.79219 7116 ft 271 kts 234°
2026-04-25 10:48 48.79592 8.76947 7115 ft 272 kts 234°
2026-04-25 10:48 48.78446 8.74664 7124 ft 272 kts 234°
2026-04-25 10:49 48.77300 8.72384 7122 ft 272 kts 233°
2026-04-25 10:49 48.76541 8.70874 7126 ft 272 kts 234°
2026-04-25 10:49 48.75008 8.67829 7122 ft 272 kts 234°
2026-04-25 10:49 48.73858 8.65561 7122 ft 271 kts 233°
2026-04-25 10:50 48.72704 8.63296 7127 ft 272 kts 234°
2026-04-25 10:50 48.71547 8.61037 7125 ft 271 kts 233°
2026-04-25 10:50 48.70378 8.58806 7126 ft 272 kts 229°
2026-04-25 10:50 48.68832 8.57181 7129 ft 275 kts 201°
2026-04-25 10:51 48.66935 8.56810 7077 ft 278 kts 175°
2026-04-25 10:51 48.65139 8.57726 6713 ft 279 kts 148°
2026-04-25 10:51 48.63781 8.59840 6298 ft 280 kts 120°
2026-04-25 10:51 48.62916 8.62486 5887 ft 281 kts 114°
2026-04-25 10:52 48.62141 8.65144 5544 ft 279 kts 114°
2026-04-25 10:52 48.61368 8.67829 5163 ft 278 kts 114°
2026-04-25 10:52 48.60783 8.70567 5009 ft 273 kts 98°
2026-04-25 10:52 48.60585 8.73432 5018 ft 274 kts 95°
2026-04-25 10:53 48.60442 8.76307 5014 ft 274 kts 92°
2026-04-25 10:53 48.60653 8.79159 5013 ft 274 kts 74°
2026-04-25 10:53 48.61212 8.81905 5020 ft 273 kts 70°
2026-04-25 10:53 48.61781 8.84643 5009 ft 273 kts 72°
2026-04-25 10:54 48.62319 8.87401 5018 ft 275 kts 73°
2026-04-25 10:54 48.62671 8.89238 5007 ft 274 kts 73°
2026-04-25 10:54 48.63357 8.92803 4912 ft 255 kts 72°
2026-04-25 10:54 48.63846 8.95333 4619 ft 246 kts 72°
2026-04-25 10:55 48.64311 8.97749 4317 ft 235 kts 72°
2026-04-25 10:55 48.64758 9.00073 4004 ft 225 kts 73°
2026-04-25 10:55 48.65194 9.02339 3699 ft 222 kts 73°
2026-04-25 10:55 48.65610 9.04521 3395 ft 209 kts 72°
2026-04-25 10:56 48.65997 9.06541 3249 ft 191 kts 73°
2026-04-25 10:56 48.66368 9.08443 2963 ft 186 kts 71°
2026-04-25 10:56 48.66729 9.10270 2707 ft 175 kts 72°
2026-04-25 10:56 48.67050 9.11989 2473 ft 164 kts 74°
2026-04-25 10:57 48.67349 9.13558 2255 ft 149 kts 73°
2026-04-25 10:57 48.67625 9.14995 2036 ft 140 kts 74°
2026-04-25 10:57 48.67891 9.16409 1852 ft 139 kts 74°
2026-04-25 10:57 48.68160 9.17819 1669 ft 139 kts 73°
2026-04-25 10:58 48.68429 9.19223 1468 ft 138 kts 75°
2026-04-25 10:58 48.68689 9.20616 1298 ft 136 kts 75°
2026-04-25 10:58 48.68927 9.21867 1249 ft 100 kts 74°
2026-04-25 10:58 48.69037 9.22454 1229 ft 27 kts 74°
2026-04-25 10:59 48.69101 9.22543 1226 ft 13 kts 354°
2026-04-25 10:59 48.69175 9.22516 1230 ft 6 kts 344°
2026-04-25 10:59 48.69187 9.22511 1231 ft 0 kts 344°
2026-04-25 10:59 48.69188 9.22510 1231 ft 1 kts 344°
2026-04-25 11:00 48.69212 9.22500 1233 ft 7 kts 344°
2026-04-25 11:00 48.69253 9.22481 1245 ft 5 kts 340°
2026-04-25 11:00 48.69285 9.22404 1243 ft 13 kts 269°
2026-04-25 11:00 48.69256 9.22233 1247 ft 17 kts 255°
2026-04-25 11:01 48.69226 9.22074 1248 ft 15 kts 253°
2026-04-25 11:01 48.69195 9.21914 1253 ft 17 kts 253°
2026-04-25 11:01 48.69160 9.21731 1263 ft 19 kts 254°
2026-04-25 11:01 48.69122 9.21526 1259 ft 21 kts 254°
2026-04-25 11:02 48.69079 9.21304 1264 ft 22 kts 253°
2026-04-25 11:02 48.69037 9.21082 1269 ft 22 kts 254°
2026-04-25 11:02 48.68997 9.20868 1274 ft 21 kts 255°
2026-04-25 11:02 48.68970 9.20720 1277 ft 0 kts 254°
2026-04-25 11:03 48.68964 9.20688 1278 ft 8 kts 254°
2026-04-25 11:03 48.68939 9.20558 1281 ft 17 kts 254°
2026-04-25 11:03 48.68898 9.20345 1287 ft 23 kts 253°
2026-04-25 11:04 48.68854 9.20115 1293 ft 20 kts 254°
2026-04-25 11:04 48.68818 9.19957 1296 ft 15 kts 263°
2026-04-25 11:04 48.68876 9.19873 1302 ft 10 kts 320°
2026-04-25 11:04 48.68886 9.19814 1304 ft 9 kts 266°
2026-04-25 11:05 48.68863 9.19679 1308 ft 11 kts 255°
2026-04-25 11:05 48.68839 9.19552 1310 ft 13 kts 253°
2026-04-25 11:05 48.68835 9.19460 1313 ft 6 kts 322°
2026-04-25 11:05 48.68868 9.19441 1314 ft 4 kts 343°
2026-04-25 11:06 48.68895 9.19429 1315 ft 4 kts 344°
2026-04-25 11:06 48.68897 9.19428 1315 ft 0 kts 344°